����,���ϕ���(m/s),���ϕ���,�ő�u�ԕ���(m/s),�ő啗��������,�C��(��),���x(%),10���Ԉړ��ώZ�J��(mm),1���Ԉړ��ώZ�J��(mm),���J��(mm),�݌v�J��(mm)
2020-07-27T00:00:00+09:00,1.4,�k��,2.6,���k��,22.8,93,0,0,4.5,4.5
2020-07-27T00:01:00+09:00,1.3,�k��,2.6,���k��,22.8,92.2,0,0,0,4.5
2020-07-27T00:02:00+09:00,1.2,�k��,2.6,���k��,22.6,91.8,0,0,0,4.5
2020-07-27T00:03:00+09:00,1.1,�k��,2.6,���k��,22.5,91.7,0,0,0,4.5
2020-07-27T00:04:00+09:00,1,�k��,2.6,���k��,22.4,92.2,0,0,0,4.5
2020-07-27T00:05:00+09:00,0.9,�k�k��,2.6,���k��,22.3,92.8,0,0,0,4.5
2020-07-27T00:06:00+09:00,0.8,�k�k��,2.6,���k��,22.3,93.5,0,0,0,4.5
2020-07-27T00:07:00+09:00,0.7,�k�k��,2.6,���k��,22.2,94,0,0,0,4.5
2020-07-27T00:08:00+09:00,0.7,�k�k��,2.6,���k��,22.1,94.3,0,0,0,4.5
2020-07-27T00:09:00+09:00,0.6,�k,2.2,�k��,22.1,94.9,0,0,0,4.5
2020-07-27T00:10:00+09:00,0.5,�k,1.6,�k�k��,22.2,95.3,0,0,0,4.5
2020-07-27T00:11:00+09:00,0.6,�k,1.6,�k�k��,22.2,95.5,0,0,0,4.5
2020-07-27T00:12:00+09:00,0.6,�k,1.6,�k�k��,22.2,95.3,0,0,0,4.5
2020-07-27T00:13:00+09:00,0.6,�k�k��,1.6,�k�k��,22.1,95.4,0,0,0,4.5
2020-07-27T00:14:00+09:00,0.7,�k�k��,1.6,�k�k��,22.3,95.6,0,0,0,4.5
2020-07-27T00:15:00+09:00,0.7,�k��,1.6,�k�k��,22.4,95.6,0,0,0,4.5
2020-07-27T00:16:00+09:00,0.7,�k��,1.6,�k�k��,22.5,95.3,0,0,0,4.5
2020-07-27T00:17:00+09:00,0.8,�k��,1.6,�k�k��,22.6,95,0,0,0,4.5
2020-07-27T00:18:00+09:00,0.8,���k��,1.7,���쓌,22.4,94.1,0,0,0,4.5
2020-07-27T00:19:00+09:00,0.8,���k��,1.7,���쓌,22.5,94,0,0,0,4.5
2020-07-27T00:20:00+09:00,0.9,��,2.3,��,22.6,93.9,0,0,0,4.5
2020-07-27T00:21:00+09:00,1,��,2.5,��,22.6,93.4,0,0,0,4.5
2020-07-27T00:22:00+09:00,1,��,2.5,��,22.7,92.8,0,0,0,4.5
2020-07-27T00:23:00+09:00,1,��,2.5,��,22.7,92.4,0,0,0,4.5
2020-07-27T00:24:00+09:00,1,��,2.5,��,22.7,92.4,0,0,0,4.5
2020-07-27T00:25:00+09:00,1.1,��,2.5,��,22.6,92.2,0,0,0,4.5
2020-07-27T00:26:00+09:00,1.1,��,2.5,��,22.7,92.3,0,0,0,4.5
2020-07-27T00:27:00+09:00,1.1,��,2.5,��,22.7,92.1,0,0,0,4.5
2020-07-27T00:28:00+09:00,1.1,���k��,2.5,��,22.6,91.9,0,0,0,4.5
2020-07-27T00:29:00+09:00,1.2,���k��,2.5,��,22.5,92,0,0,0,4.5
2020-07-27T00:30:00+09:00,1.1,�k��,2.5,��,22.5,92.4,0,0,0,4.5
2020-07-27T00:31:00+09:00,1.1,�k��,2.7,�k�k��,22.5,92.8,0,0,0,4.5
2020-07-27T00:32:00+09:00,1.1,�k��,2.7,�k�k��,22.4,93,0,0,0,4.5
2020-07-27T00:33:00+09:00,1.1,�k��,2.7,�k�k��,22.4,93.5,0,0,0,4.5
2020-07-27T00:34:00+09:00,1.1,�k�k��,2.7,�k�k��,22.3,93.7,0,0,0,4.5
2020-07-27T00:35:00+09:00,1,�k�k��,2.7,�k�k��,22.3,94.1,0,0,0,4.5
2020-07-27T00:36:00+09:00,1.1,�k�k��,2.7,�k�k��,22.4,94.2,0,0,0,4.5
2020-07-27T00:37:00+09:00,1.1,�k�k��,2.7,�k�k��,22.4,94.2,0,0,0,4.5
2020-07-27T00:38:00+09:00,1.2,�k�k��,2.7,�k�k��,22.3,94.1,0,0,0,4.5
2020-07-27T00:39:00+09:00,1.2,�k�k��,2.7,�k�k��,22.4,94.3,0,0,0,4.5
2020-07-27T00:40:00+09:00,1.3,�k�k��,2.7,�k�k��,22.5,94,0,0,0,4.5
2020-07-27T00:41:00+09:00,1.1,�k�k��,2.5,�k�k��,22.5,93.1,0,0,0,4.5
2020-07-27T00:42:00+09:00,1.1,�k,3.1,�k,22.5,92.8,0,0,0,4.5
2020-07-27T00:43:00+09:00,1.3,�k,3.5,�k�k��,22.4,92.6,0,0,0,4.5
2020-07-27T00:44:00+09:00,1.5,�k,3.5,�k�k��,22.5,92.6,0,0,0,4.5
2020-07-27T00:45:00+09:00,1.6,�k,3.5,�k�k��,22.5,92.5,0,0,0,4.5
2020-07-27T00:46:00+09:00,1.6,�k,3.5,�k�k��,22.8,92.5,0,0,0,4.5
2020-07-27T00:47:00+09:00,1.5,�k,3.5,�k�k��,23.2,90.1,0,0,0,4.5
2020-07-27T00:48:00+09:00,1.4,�k,3.5,�k�k��,23.5,87.8,0,0,0,4.5
2020-07-27T00:49:00+09:00,1.4,�k�k��,3.5,�k�k��,23.4,86.8,0,0,0,4.5
2020-07-27T00:50:00+09:00,1.4,�k�k��,3.5,�k�k��,23.3,86.5,0,0,0,4.5
2020-07-27T00:51:00+09:00,1.4,�k�k��,3.5,�k�k��,23.2,86.6,0,0,0,4.5
2020-07-27T00:52:00+09:00,1.3,�k��,3.5,�k�k��,23.2,86.8,0,0,0,4.5
2020-07-27T00:53:00+09:00,1.3,�k��,3.3,��,23.4,86.4,0,0,0,4.5
2020-07-27T00:54:00+09:00,1.3,���k��,4.2,���쓌,23.6,85.3,0,0,0,4.5
2020-07-27T00:55:00+09:00,1.3,���k��,4.8,��,23.6,84.6,0,0,0,4.5
2020-07-27T00:56:00+09:00,1.3,���k��,4.8,��,23.5,84.3,0,0,0,4.5
2020-07-27T00:57:00+09:00,1.5,��,4.8,��,23.5,84.3,0,0,0,4.5
2020-07-27T00:58:00+09:00,1.6,��,4.8,��,23.6,84,0,0,0,4.5
2020-07-27T00:59:00+09:00,1.8,��,4.8,��,23.7,83.6,0,0,0,4.5
2020-07-27T01:00:00+09:00,2,���쓌,7.3,�쓌,23.7,83.5,0,0,0,4.5
2020-07-27T01:01:00+09:00,2.1,���쓌,7.3,�쓌,23.6,83.5,0,0,0,4.5
2020-07-27T01:02:00+09:00,2.3,�쓌,7.3,�쓌,23.7,83.4,0,0,0,4.5
2020-07-27T01:03:00+09:00,2.4,�쓌,7.3,�쓌,23.7,83.1,0,0,0,4.5
2020-07-27T01:04:00+09:00,2.5,�쓌,7.3,�쓌,23.9,82.7,0,0,0,4.5
2020-07-27T01:05:00+09:00,2.6,�쓌,7.3,�쓌,24,82.1,0,0,0,4.5
2020-07-27T01:06:00+09:00,2.5,�쓌,7.3,�쓌,23.9,82,0,0,0,4.5
2020-07-27T01:07:00+09:00,2.4,��쓌,7.3,�쓌,24,81.9,0,0,0,4.5
2020-07-27T01:08:00+09:00,2.5,��쓌,7.3,�쓌,23.9,81.8,0,0,0,4.5
2020-07-27T01:09:00+09:00,2.6,�쓌,7.3,�쓌,23.8,82,0,0,0,4.5
2020-07-27T01:10:00+09:00,2.6,��쓌,6.4,��쓌,24,82,0,0,0,4.5
2020-07-27T01:11:00+09:00,2.5,��쓌,6.4,��쓌,24.1,81.4,0,0,0,4.5
2020-07-27T01:12:00+09:00,2.3,��쓌,6.4,��쓌,24.1,81.2,0,0,0,4.5
2020-07-27T01:13:00+09:00,2.1,��쓌,6.4,��쓌,24.1,81.1,0,0,0,4.5
2020-07-27T01:14:00+09:00,1.8,��,6.4,��쓌,24.1,80.9,0,0,0,4.5
2020-07-27T01:15:00+09:00,1.7,��,5.4,��쓌,24,81,0,0,0,4.5
2020-07-27T01:16:00+09:00,1.6,��,5.4,��쓌,24,81.1,0,0,0,4.5
2020-07-27T01:17:00+09:00,1.6,��쓌,5.4,��쓌,23.8,82,0,0,0,4.5
2020-07-27T01:18:00+09:00,1.4,��쓌,5.4,��쓌,23.6,82.8,0,0,0,4.5
2020-07-27T01:19:00+09:00,1.3,�쓌,5.4,��쓌,23.5,83.6,0,0,0,4.5
2020-07-27T01:20:00+09:00,1.1,���쓌,3.2,��,23.5,84.2,0,0,0,4.5
2020-07-27T01:21:00+09:00,1.1,��,3.2,��,23.9,83.5,0,0,0,4.5
2020-07-27T01:22:00+09:00,1.1,���k��,3.2,��,23.6,83.3,0,0,0,4.5
2020-07-27T01:23:00+09:00,1.3,���k��,3.2,��,23.2,84.5,0,0,0,4.5
2020-07-27T01:24:00+09:00,1.4,���k��,3.2,��,23.2,85.6,0,0,0,4.5
2020-07-27T01:25:00+09:00,1.5,���k��,3.2,��,22.8,86.6,0,0,0,4.5
2020-07-27T01:26:00+09:00,1.5,���k��,3.2,��,22.6,88.5,0,0,0,4.5
2020-07-27T01:27:00+09:00,1.5,�k��,3.2,��,22.5,89.9,0,0,0,4.5
2020-07-27T01:28:00+09:00,1.4,�k��,3.2,��,22.3,91,0,0,0,4.5
2020-07-27T01:29:00+09:00,1.4,�k�k��,3.2,��,22.3,91.9,0,0,0,4.5
2020-07-27T01:30:00+09:00,1.4,�k�k��,3.3,�k,22.2,92.7,0,0,0,4.5
2020-07-27T01:31:00+09:00,1.6,�k,4.1,�k,22.2,93.3,0,0,0,4.5
2020-07-27T01:32:00+09:00,1.6,�k,4.1,�k,22.1,94,0,0,0,4.5
2020-07-27T01:33:00+09:00,1.6,�k,4.1,�k,22.2,94.7,0,0,0,4.5
2020-07-27T01:34:00+09:00,1.5,�k,4.1,�k,22.4,94.9,0,0,0,4.5
2020-07-27T01:35:00+09:00,1.4,�k,4.1,�k,22.3,94.4,0,0,0,4.5
2020-07-27T01:36:00+09:00,1.4,�k,4.1,�k,22.2,94,0,0,0,4.5
2020-07-27T01:37:00+09:00,1.5,�k,4.1,�k,22.2,94.2,0,0,0,4.5
2020-07-27T01:38:00+09:00,1.6,�k,4.1,�k,22.2,94.5,0,0,0,4.5
2020-07-27T01:39:00+09:00,1.6,�k,4.1,�k,22.2,94.9,0,0,0,4.5
2020-07-27T01:40:00+09:00,1.5,�k,4.1,�k,22.3,95,0,0,0,4.5
2020-07-27T01:41:00+09:00,1.4,�k,3.4,�k�k��,22.5,94.7,0,0,0,4.5
2020-07-27T01:42:00+09:00,1.3,�k,3.4,�k�k��,22.5,94,0,0,0,4.5
2020-07-27T01:43:00+09:00,1.3,�k,3.4,�k�k��,22.4,93.3,0,0,0,4.5
2020-07-27T01:44:00+09:00,1.4,�k�k��,3.4,�k�k��,22.3,93.1,0,0,0,4.5
2020-07-27T01:45:00+09:00,1.4,�k�k��,3.4,�k�k��,22.3,93.4,0,0,0,4.5
2020-07-27T01:46:00+09:00,1.4,�k�k��,3.4,�k�k��,22.3,93.7,0,0,0,4.5
2020-07-27T01:47:00+09:00,1.3,�k�k��,3.4,�k�k��,22.3,93.9,0,0,0,4.5
2020-07-27T01:48:00+09:00,1.2,�k,2.6,�k,22.3,93.8,0,0,0,4.5
2020-07-27T01:49:00+09:00,1.1,�k�k��,2.2,��,22.3,93.7,0,0,0,4.5
2020-07-27T01:50:00+09:00,1,�k�k��,2.2,��,22.4,93.7,0,0,0,4.5
2020-07-27T01:51:00+09:00,1,�k�k��,4.2,��쓌,22.8,93.3,0,0,0,4.5
2020-07-27T01:52:00+09:00,1.2,�k��,4.8,�쓌,23.1,91.8,0,0,0,4.5
2020-07-27T01:53:00+09:00,1.7,�k,9,��쓌,23.4,89.5,0,0,0,4.5
2020-07-27T01:54:00+09:00,2,��,9,��쓌,23.7,87.3,0,0,0,4.5
2020-07-27T01:55:00+09:00,2.5,���쓌,9,��쓌,23.9,85.6,0,0,0,4.5
2020-07-27T01:56:00+09:00,3,�쓌,9,��쓌,23.9,84.5,0,0,0,4.5
2020-07-27T01:57:00+09:00,3.3,��쓌,9,��쓌,23.9,83.8,0,0,0,4.5
2020-07-27T01:58:00+09:00,3.5,��쓌,9,��쓌,23.9,83.7,0,0,0,4.5
2020-07-27T01:59:00+09:00,3.7,��쓌,9,��쓌,23.9,83.6,0,0,0,4.5
2020-07-27T02:00:00+09:00,3.9,��쓌,9,��쓌,23.8,83.6,0,0,0,4.5
2020-07-27T02:01:00+09:00,4.3,��쓌,9,��쓌,23.8,83.6,0,0,0,4.5
2020-07-27T02:02:00+09:00,4.3,��쓌,9,��쓌,23.9,83.3,0,0,0,4.5
2020-07-27T02:03:00+09:00,4.2,��쓌,8.8,��쓌,23.9,83.1,0,0,0,4.5
2020-07-27T02:04:00+09:00,4.3,��쓌,9.9,�쓌,24,82.8,0,0,0,4.5
2020-07-27T02:05:00+09:00,4.2,��,9.9,�쓌,24.1,82.6,0,0,0,4.5
2020-07-27T02:06:00+09:00,4,��,9.9,�쓌,24.2,81.9,0,0,0,4.5
2020-07-27T02:07:00+09:00,3.9,��,9.9,�쓌,24.2,81.6,0,0,0,4.5
2020-07-27T02:08:00+09:00,4.3,��,9.9,�쓌,24.1,81.7,0,0,0,4.5
2020-07-27T02:09:00+09:00,4.5,��,9.9,�쓌,24.1,81.8,0,0,0,4.5
2020-07-27T02:10:00+09:00,4.4,��,9.9,�쓌,24.1,81.9,0,0,0,4.5
2020-07-27T02:11:00+09:00,4.2,��,9.9,�쓌,24,82,0,0,0,4.5
2020-07-27T02:12:00+09:00,4.3,��,9.9,�쓌,24.1,82.2,0,0,0,4.5
2020-07-27T02:13:00+09:00,4.3,��,9.9,�쓌,24.1,82.2,0,0,0,4.5
2020-07-27T02:14:00+09:00,4.2,��,9.2,��쓌,24.1,82.2,0,0,0,4.5
2020-07-27T02:15:00+09:00,4.2,��,9.2,��쓌,24.2,82,0,0,0,4.5
2020-07-27T02:16:00+09:00,4.2,��쓌,9.2,��쓌,24.2,81.7,0,0,0,4.5
2020-07-27T02:17:00+09:00,4.4,��쓌,9.2,��쓌,24.2,81.6,0,0,0,4.5
2020-07-27T02:18:00+09:00,4.2,��,8.9,�쓌,24.2,81.8,0,0,0,4.5
2020-07-27T02:19:00+09:00,4.1,��,8.9,�쓌,24.1,81.9,0,0,0,4.5
2020-07-27T02:20:00+09:00,4.5,��쓌,8.9,�쓌,24.2,82,0,0,0,4.5
2020-07-27T02:21:00+09:00,4.7,��쓌,8.9,�쓌,24.2,81.8,0,0,0,4.5
2020-07-27T02:22:00+09:00,4.7,��쓌,8.9,�쓌,24.2,81.8,0,0,0,4.5
2020-07-27T02:23:00+09:00,4.8,��쓌,8.9,�쓌,24.3,81.8,0,0,0,4.5
2020-07-27T02:24:00+09:00,4.4,��쓌,8,��쓌,24.3,81.6,0,0,0,4.5
2020-07-27T02:25:00+09:00,4.3,��쓌,8,��쓌,24.2,81.5,0,0,0,4.5
2020-07-27T02:26:00+09:00,4.3,��쓌,8,��쓌,24.2,81.5,0,0,0,4.5
2020-07-27T02:27:00+09:00,4.1,��,8,��쓌,24.2,81.6,0,0,0,4.5
2020-07-27T02:28:00+09:00,4.3,��,8,��쓌,24.2,81.9,0,0,0,4.5
2020-07-27T02:29:00+09:00,4.4,��,8.5,�쓌,24.3,81.9,0,0,0,4.5
2020-07-27T02:30:00+09:00,4.4,��쓌,8.8,��쓌,24.3,81.6,0,0,0,4.5
2020-07-27T02:31:00+09:00,4.6,��쓌,9.9,��쓌,24.3,81.4,0,0,0,4.5
2020-07-27T02:32:00+09:00,4.6,��쓌,9.9,��쓌,24.3,81.3,0,0,0,4.5
2020-07-27T02:33:00+09:00,4.4,��,9.9,��쓌,24.2,81.4,0,0,0,4.5
2020-07-27T02:34:00+09:00,4.6,��,9.9,��쓌,24.2,81.8,0,0,0,4.5
2020-07-27T02:35:00+09:00,4.5,��,9.9,��쓌,24.2,82,0,0,0,4.5
2020-07-27T02:36:00+09:00,4.5,��,9.9,��쓌,24.2,82.2,0,0,0,4.5
2020-07-27T02:37:00+09:00,4.6,��쓌,9.9,��쓌,24.2,82.2,0,0,0,4.5
2020-07-27T02:38:00+09:00,4.4,��쓌,9.9,��쓌,24.2,82.3,0,0,0,4.5
2020-07-27T02:39:00+09:00,4.3,��쓌,9.9,��쓌,24.2,82.2,0,0,0,4.5
2020-07-27T02:40:00+09:00,4,��쓌,9.9,��쓌,24.3,82.1,0,0,0,4.5
2020-07-27T02:41:00+09:00,3.8,��쓌,8.4,��쓌,24.3,82.1,0,0,0,4.5
2020-07-27T02:42:00+09:00,3.9,��쓌,8.4,��쓌,24.3,81.9,0,0,0,4.5
2020-07-27T02:43:00+09:00,4,��쓌,8.4,��쓌,24.2,81.8,0,0,0,4.5
2020-07-27T02:44:00+09:00,4,��쓌,8.4,��쓌,24.3,82.2,0,0,0,4.5
2020-07-27T02:45:00+09:00,4.2,��쓌,8.4,��쓌,24.3,82,0,0,0,4.5
2020-07-27T02:46:00+09:00,4.3,��쓌,8.4,��쓌,24.3,82,0,0,0,4.5
2020-07-27T02:47:00+09:00,4.6,��쓌,8.4,��쓌,24.4,82,0,0,0,4.5
2020-07-27T02:48:00+09:00,4.5,��쓌,8.4,��쓌,24.3,81.9,0,0,0,4.5
2020-07-27T02:49:00+09:00,4.6,��쓌,8.4,��쓌,24.1,82,0,0,0,4.5
2020-07-27T02:50:00+09:00,4.6,��쓌,8.4,��쓌,24.1,82.4,0,0,0,4.5
2020-07-27T02:51:00+09:00,4.6,��쓌,7.8,��쓌,23.9,82.7,0,0,0,4.5
2020-07-27T02:52:00+09:00,4.4,��쓌,7.7,�쓌,24,83.4,0,0,0,4.5
2020-07-27T02:53:00+09:00,4.5,��쓌,9.6,�쓌,24,83.5,0,0,0,4.5
2020-07-27T02:54:00+09:00,4.6,��쓌,9.6,�쓌,24.2,83.5,0,0,0,4.5
2020-07-27T02:55:00+09:00,4.6,��쓌,9.6,�쓌,24.2,83.2,0,0,0,4.5
2020-07-27T02:56:00+09:00,4.5,��쓌,9.6,�쓌,24.2,82.9,0,0,0,4.5
2020-07-27T02:57:00+09:00,4.6,��쓌,9.6,�쓌,24.4,82.6,0,0,0,4.5
2020-07-27T02:58:00+09:00,4.8,��쓌,9.6,�쓌,24.5,82,0,0,0,4.5
2020-07-27T02:59:00+09:00,4.8,��쓌,9.6,�쓌,24.4,81.8,0,0,0,4.5
2020-07-27T03:00:00+09:00,4.8,��쓌,9.6,�쓌,24.4,81.8,0,0,0,4.5
2020-07-27T03:01:00+09:00,4.7,��쓌,9.6,�쓌,24.2,81.9,0,0,0,4.5
2020-07-27T03:02:00+09:00,4.6,��쓌,9.6,�쓌,24.2,82.1,0,0,0,4.5
2020-07-27T03:03:00+09:00,4.4,��쓌,9.6,��쓌,24.3,82.2,0,0,0,4.5
2020-07-27T03:04:00+09:00,4.4,��쓌,9.6,��쓌,24.2,82.3,0,0,0,4.5
2020-07-27T03:05:00+09:00,4.4,��쓌,9.6,��쓌,24.3,82.4,0,0,0,4.5
2020-07-27T03:06:00+09:00,4.4,��쓌,9.6,��쓌,24.3,82.2,0,0,0,4.5
2020-07-27T03:07:00+09:00,4,��쓌,7.9,��쓌,24.3,82.3,0,0,0,4.5
2020-07-27T03:08:00+09:00,3.7,��쓌,7.1,��쐼,24.2,82.4,0,0,0,4.5
2020-07-27T03:09:00+09:00,3.8,��,7.1,��쐼,24.3,82.5,0,0,0,4.5
2020-07-27T03:10:00+09:00,3.6,��,6.2,��쓌,24.5,82,0,0,0,4.5
2020-07-27T03:11:00+09:00,3.5,��쓌,6.2,��쓌,24.6,81.7,0,0,0,4.5
2020-07-27T03:12:00+09:00,3.6,��쓌,6.6,�쓌,24.5,81.2,0,0,0,4.5
2020-07-27T03:13:00+09:00,3.7,��쓌,6.6,�쓌,24.5,81.2,0,0,0,4.5
2020-07-27T03:14:00+09:00,3.7,��,6.6,�쓌,24.4,81.4,0,0,0,4.5
2020-07-27T03:15:00+09:00,3.7,��쓌,6.6,�쓌,24.3,81.3,0,0,0,4.5
2020-07-27T03:16:00+09:00,3.8,��,7.1,��,24.2,81.7,0,0,0,4.5
2020-07-27T03:17:00+09:00,3.9,��,7.2,��,24.2,82,0,0,0,4.5
2020-07-27T03:18:00+09:00,3.9,��쓌,7.2,��,24,82.3,0,0,0,4.5
2020-07-27T03:19:00+09:00,3.9,��쓌,7.2,��,24.1,82.9,0,0,0,4.5
2020-07-27T03:20:00+09:00,4.1,��쓌,7.2,��,24.1,83,0,0,0,4.5
2020-07-27T03:21:00+09:00,4.2,��쓌,7.2,��,24.2,82.9,0,0,0,4.5
2020-07-27T03:22:00+09:00,4.2,��쓌,7.2,��,24.2,82.7,0,0,0,4.5
2020-07-27T03:23:00+09:00,4.2,��쓌,7.2,��,24.2,82.7,0,0,0,4.5
2020-07-27T03:24:00+09:00,4.1,��쓌,7.2,��,24.2,82.7,0,0,0,4.5
2020-07-27T03:25:00+09:00,4.3,��쓌,9.7,��쓌,24.3,82.7,0,0,0,4.5
2020-07-27T03:26:00+09:00,4.5,��쓌,9.7,��쓌,24.4,82.3,0,0,0,4.5
2020-07-27T03:27:00+09:00,4.6,��쓌,9.7,��쓌,24.5,81.9,0,0,0,4.5
2020-07-27T03:28:00+09:00,4.5,��쓌,9.7,��쓌,24.4,81.8,0,0,0,4.5
2020-07-27T03:29:00+09:00,4.4,��쓌,9.7,��쓌,24.5,81.7,0,0,0,4.5
2020-07-27T03:30:00+09:00,4.3,��쓌,9.7,��쓌,24.5,81.4,0,0,0,4.5
2020-07-27T03:31:00+09:00,4.3,��쓌,9.7,��쓌,24.6,81.2,0,0,0,4.5
2020-07-27T03:32:00+09:00,4.3,��쓌,9.7,��쓌,24.6,81,0,0,0,4.5
2020-07-27T03:33:00+09:00,4.4,��쓌,9.7,��쓌,24.5,81.2,0,0,0,4.5
2020-07-27T03:34:00+09:00,4.3,��쓌,9.7,��쓌,24.5,81.3,0,0,0,4.5
2020-07-27T03:35:00+09:00,4.1,��쓌,8.8,��쓌,24.5,81.4,0,0,0,4.5
2020-07-27T03:36:00+09:00,3.9,��쓌,8,��쓌,24.6,81.4,0,0,0,4.5
2020-07-27T03:37:00+09:00,4,��쓌,9,��쓌,24.7,81,0,0,0,4.5
2020-07-27T03:38:00+09:00,4.2,��쓌,9,��쓌,24.7,80.7,0,0,0,4.5
2020-07-27T03:39:00+09:00,4.6,��쓌,9.7,��쓌,24.8,80.8,0,0,0,4.5
2020-07-27T03:40:00+09:00,4.7,��쓌,9.7,��쓌,24.9,80.4,0,0,0,4.5
2020-07-27T03:41:00+09:00,4.8,��쓌,9.7,��쓌,24.8,80,0,0,0,4.5
2020-07-27T03:42:00+09:00,4.9,��쓌,9.7,��쓌,24.7,80.2,0,0,0,4.5
2020-07-27T03:43:00+09:00,4.8,��쓌,9.7,��쓌,24.6,80.3,0,0,0,4.5
2020-07-27T03:44:00+09:00,4.9,��쓌,9.7,��쓌,24.6,80.6,0,0,0,4.5
2020-07-27T03:45:00+09:00,5.2,��쓌,9.7,��쓌,24.6,81,0,0,0,4.5
2020-07-27T03:46:00+09:00,5,��쓌,9.7,��쓌,24.6,81.1,0,0,0,4.5
2020-07-27T03:47:00+09:00,4.8,��쓌,9.7,��쓌,24.6,81.5,0,0,0,4.5
2020-07-27T03:48:00+09:00,4.6,��쓌,9.7,��쓌,24.7,81.3,0,0,0,4.5
2020-07-27T03:49:00+09:00,4.2,��쓌,9.6,�쓌,24.5,81,0,0,0,4.5
2020-07-27T03:50:00+09:00,4,��쓌,9.6,�쓌,24.3,81.3,0,0,0,4.5
2020-07-27T03:51:00+09:00,3.8,��쓌,9.6,�쓌,24.1,81.7,0,0,0,4.5
2020-07-27T03:52:00+09:00,3.6,��쓌,9.6,�쓌,24,82.4,0,0,0,4.5
2020-07-27T03:53:00+09:00,3.6,��쓌,9.6,�쓌,23.9,83.2,0,0,0,4.5
2020-07-27T03:54:00+09:00,3.5,��쓌,9.6,�쓌,23.9,83.8,0,0,0,4.5
2020-07-27T03:55:00+09:00,3.4,��쓌,7.9,��쐼,24.1,84.5,0,0,0,4.5
2020-07-27T03:56:00+09:00,3.7,��쓌,7.9,��쐼,24.4,84.3,0,0,0,4.5
2020-07-27T03:57:00+09:00,3.8,��쓌,7.7,�쓌,24.6,83.3,0,0,0,4.5
2020-07-27T03:58:00+09:00,4.1,�쓌,10.4,�쓌,24.6,82.6,0,0,0,4.5
2020-07-27T03:59:00+09:00,4.3,��쓌,10.4,�쓌,24.6,82.3,0,0,0,4.5
2020-07-27T04:00:00+09:00,4.5,��쓌,10.4,�쓌,24.5,82.1,0,0,0,4.5
2020-07-27T04:01:00+09:00,4.4,��쓌,10.4,�쓌,24.3,82.2,0,0,0,4.5
2020-07-27T04:02:00+09:00,4.3,��쓌,10.4,�쓌,24.2,82.5,0,0,0,4.5
2020-07-27T04:03:00+09:00,4.3,��쓌,10.4,�쓌,24.3,83.4,0,0,0,4.5
2020-07-27T04:04:00+09:00,4.3,��쓌,10.4,�쓌,24.5,83.8,0,0,0,4.5
2020-07-27T04:05:00+09:00,4.4,��쓌,10.4,�쓌,24.2,82.7,0,0,0,4.5
2020-07-27T04:06:00+09:00,4.3,��쓌,10.4,�쓌,24.4,83.4,0,0,0,4.5
2020-07-27T04:07:00+09:00,4.5,��쓌,10.4,�쓌,24.3,83.2,0,0,0,4.5
2020-07-27T04:08:00+09:00,4.3,��쓌,9.3,�쓌,24.4,83.4,0,0,0,4.5
2020-07-27T04:09:00+09:00,4.2,��쓌,9.3,�쓌,24.4,83,0,0,0,4.5
2020-07-27T04:10:00+09:00,4.2,��쓌,9.3,�쓌,24.3,82.8,0,0,0,4.5
2020-07-27T04:11:00+09:00,4.1,��쓌,9.3,�쓌,24.2,83.1,0,0,0,4.5
2020-07-27T04:12:00+09:00,4.1,��쓌,9.3,�쓌,24.1,83.6,0,0,0,4.5
2020-07-27T04:13:00+09:00,4.1,��쓌,9.3,�쓌,24,83.8,0,0,0,4.5
2020-07-27T04:14:00+09:00,4,��쓌,9.3,�쓌,24,84.1,0,0,0,4.5
2020-07-27T04:15:00+09:00,3.9,�쓌,9.3,�쓌,24.1,84.8,0,0,0,4.5
2020-07-27T04:16:00+09:00,3.7,�쓌,9.3,�쓌,24.1,84.8,0,0,0,4.5
2020-07-27T04:17:00+09:00,3.4,�쓌,7.2,��쓌,23.9,84.2,0,0,0,4.5
2020-07-27T04:18:00+09:00,3.4,�쓌,6.5,���쓌,23.9,85,0,0,0,4.5
2020-07-27T04:19:00+09:00,3.5,�쓌,6.5,���쓌,24.1,85.6,0,0,0,4.5
2020-07-27T04:20:00+09:00,3.5,�쓌,6.5,���쓌,24.1,85.1,0,0,0,4.5
2020-07-27T04:21:00+09:00,3.5,�쓌,6.5,���쓌,24,84.8,0,0,0,4.5
2020-07-27T04:22:00+09:00,3.5,�쓌,6.5,���쓌,24,85,0,0,0,4.5
2020-07-27T04:23:00+09:00,3.5,�쓌,6.5,���쓌,24,85.3,0,0,0,4.5
2020-07-27T04:24:00+09:00,3.4,�쓌,6.5,���쓌,24,85.3,0,0,0,4.5
2020-07-27T04:25:00+09:00,3.4,�쓌,5.9,�쓌,23.9,85.3,0,0,0,4.5
2020-07-27T04:26:00+09:00,3.3,�쓌,5.9,�쓌,23.9,85.5,0,0,0,4.5
2020-07-27T04:27:00+09:00,3.1,�쓌,5.9,�쓌,23.9,85.7,0,0,0,4.5
2020-07-27T04:28:00+09:00,2.9,�쓌,5.9,�쓌,23.9,86,0,0,0,4.5
2020-07-27T04:29:00+09:00,2.6,�쓌,5.3,�쓌,23.9,86,0,0,0,4.5
2020-07-27T04:30:00+09:00,2.6,�쓌,5.3,�쓌,24,86,0,0,0,4.5
2020-07-27T04:31:00+09:00,2.8,�쓌,5.9,�쓌,24,86,0,0,0,4.5
2020-07-27T04:32:00+09:00,2.9,�쓌,5.9,�쓌,24,86,0,0,0,4.5
2020-07-27T04:33:00+09:00,3,�쓌,5.9,�쓌,24.1,85.9,0,0,0,4.5
2020-07-27T04:34:00+09:00,3,�쓌,5.9,�쓌,24.1,85.7,0,0,0,4.5
2020-07-27T04:35:00+09:00,3,�쓌,5.9,�쓌,24,85.7,0,0,0,4.5
2020-07-27T04:36:00+09:00,3.1,�쓌,5.9,�쓌,24,85.8,0,0,0,4.5
2020-07-27T04:37:00+09:00,3,�쓌,5.9,�쓌,24,85.9,0,0,0,4.5
2020-07-27T04:38:00+09:00,3.1,�쓌,5.9,�쓌,24,86.2,0,0,0,4.5
2020-07-27T04:39:00+09:00,3.2,�쓌,5.9,�쓌,24.1,86.4,0,0,0,4.5
2020-07-27T04:40:00+09:00,3.1,�쓌,5.9,�쓌,24.1,86.3,0,0,0,4.5
2020-07-27T04:41:00+09:00,3,�쓌,5.8,�쓌,24.1,86.1,0,0,0,4.5
2020-07-27T04:42:00+09:00,2.9,�쓌,5.6,�쓌,24.1,86,0,0,0,4.5
2020-07-27T04:43:00+09:00,2.8,�쓌,5.6,�쓌,24.1,85.8,0,0,0,4.5
2020-07-27T04:44:00+09:00,2.9,�쓌,5.6,�쓌,24.1,85.8,0,0,0,4.5
2020-07-27T04:45:00+09:00,2.9,�쓌,5.6,�쓌,24,85.9,0,0,0,4.5
2020-07-27T04:46:00+09:00,2.8,�쓌,5.6,�쓌,23.9,86,0,0,0,4.5
2020-07-27T04:47:00+09:00,3,�쓌,5.6,�쓌,23.9,86.2,0,0,0,4.5
2020-07-27T04:48:00+09:00,3,�쓌,5,�쓌,23.9,86.4,0,0,0,4.5
2020-07-27T04:49:00+09:00,3,�쓌,5,�쓌,24,86.7,0,0,0,4.5
2020-07-27T04:50:00+09:00,3,�쓌,5.2,�쓌,24,86.7,0,0,0,4.5
2020-07-27T04:51:00+09:00,2.9,�쓌,5.2,�쓌,23.9,86.6,0,0,0,4.5
2020-07-27T04:52:00+09:00,3,�쓌,5.9,��쓌,24,87,0,0,0,4.5
2020-07-27T04:53:00+09:00,3,�쓌,5.9,��쓌,24,87,0,0,0,4.5
2020-07-27T04:54:00+09:00,3,�쓌,5.9,��쓌,24,86.8,0,0,0,4.5
2020-07-27T04:55:00+09:00,3.1,�쓌,6,��쓌,24,86.7,0,0,0,4.5
2020-07-27T04:56:00+09:00,3.1,�쓌,6,��쓌,24,86.8,0,0,0,4.5
2020-07-27T04:57:00+09:00,3.3,�쓌,6,��쓌,24.1,87.2,0,0,0,4.5
2020-07-27T04:58:00+09:00,3.4,�쓌,6,��쓌,24,86.6,0,0,0,4.5
2020-07-27T04:59:00+09:00,3.3,�쓌,6,��쓌,24,86.5,0,0,0,4.5
2020-07-27T05:00:00+09:00,3.3,��쓌,6,��쓌,23.9,86.7,0,0,0,4.5
2020-07-27T05:01:00+09:00,3.4,��쓌,6,��쓌,24,87,0,0,0,4.5
2020-07-27T05:02:00+09:00,3.2,��쓌,6,��쓌,24.1,87.2,0,0,0,4.5
2020-07-27T05:03:00+09:00,3,��쓌,6,��쓌,24.1,86.9,0,0,0,4.5
2020-07-27T05:04:00+09:00,2.9,�쓌,6,��쓌,24.1,86.7,0,0,0,4.5
2020-07-27T05:05:00+09:00,2.7,�쓌,5.8,�쓌,24.1,86.9,0,0,0,4.5
2020-07-27T05:06:00+09:00,2.7,�쓌,5.8,�쓌,24,87.2,0,0,0,4.5
2020-07-27T05:07:00+09:00,2.5,�쓌,4.9,�쓌,24,87.6,0,0,0,4.5
2020-07-27T05:08:00+09:00,2.4,�쓌,4.4,���쓌,24,88,0,0,0,4.5
2020-07-27T05:09:00+09:00,2.6,�쓌,5.4,�쓌,24,88.1,0,0,0,4.5
2020-07-27T05:10:00+09:00,2.7,�쓌,6,��쓌,24.2,88.2,0,0,0,4.5
2020-07-27T05:11:00+09:00,2.7,�쓌,6,��쓌,24.2,87.8,0,0,0,4.5
2020-07-27T05:12:00+09:00,2.9,�쓌,6,��쓌,24.2,87.5,0,0,0,4.5
2020-07-27T05:13:00+09:00,3,�쓌,6,��쓌,24.2,87.7,0,0,0,4.5
2020-07-27T05:14:00+09:00,3.1,�쓌,6,��쓌,24.3,87.4,0,0,0,4.5
2020-07-27T05:15:00+09:00,3.4,�쓌,6.4,��쓌,24.3,87.3,0,0,0,4.5
2020-07-27T05:16:00+09:00,3.5,�쓌,6.4,��쓌,24.2,87.1,0,0,0,4.5
2020-07-27T05:17:00+09:00,3.7,�쓌,6.4,��쓌,24.2,87.2,0,0,0,4.5
2020-07-27T05:18:00+09:00,3.8,��쓌,7.3,��쓌,24.3,87.4,0,0,0,4.5
2020-07-27T05:19:00+09:00,3.9,��쓌,7.4,�쓌,24.3,87.3,0,0,0,4.5
2020-07-27T05:20:00+09:00,3.8,��쓌,7.4,�쓌,24.4,87.2,0,0,0,4.5
2020-07-27T05:21:00+09:00,3.9,�쓌,7.4,�쓌,24.3,86.9,0,0,0,4.5
2020-07-27T05:22:00+09:00,4,�쓌,7.4,�쓌,24.4,87.1,0,0,0,4.5
2020-07-27T05:23:00+09:00,4,�쓌,7.4,�쓌,24.3,86.9,0,0,0,4.5
2020-07-27T05:24:00+09:00,3.9,�쓌,7.4,�쓌,24.3,86.9,0,0,0,4.5
2020-07-27T05:25:00+09:00,3.8,�쓌,7.4,�쓌,24.3,86.9,0,0,0,4.5
2020-07-27T05:26:00+09:00,3.7,�쓌,7.4,�쓌,24.4,87,0,0,0,4.5
2020-07-27T05:27:00+09:00,3.5,�쓌,7.4,�쓌,24.3,86.6,0,0,0,4.5
2020-07-27T05:28:00+09:00,3.1,�쓌,7.4,�쓌,24.2,86.9,0,0,0,4.5
2020-07-27T05:29:00+09:00,3,�쓌,6.2,�쓌,24.2,87.1,0,0,0,4.5
2020-07-27T05:30:00+09:00,2.9,�쓌,5.8,��쓌,24.3,87.3,0,0,0,4.5
2020-07-27T05:31:00+09:00,2.9,�쓌,5.7,���쓌,24.4,87.1,0,0,0,4.5
2020-07-27T05:32:00+09:00,2.9,�쓌,5.7,���쓌,24.3,86.6,0,0,0,4.5
2020-07-27T05:33:00+09:00,2.9,�쓌,5.7,���쓌,24.4,86.7,0,0,0,4.5
2020-07-27T05:34:00+09:00,3,�쓌,5.7,���쓌,24.5,86.7,0,0,0,4.5
2020-07-27T05:35:00+09:00,3,�쓌,5.7,���쓌,24.4,86.2,0,0,0,4.5
2020-07-27T05:36:00+09:00,2.9,�쓌,5.7,���쓌,24.3,86.3,0,0,0,4.5
2020-07-27T05:37:00+09:00,3,�쓌,5.7,���쓌,24.3,86.7,0,0,0,4.5
2020-07-27T05:38:00+09:00,3.2,�쓌,5.7,���쓌,24.4,86.9,0,0,0,4.5
2020-07-27T05:39:00+09:00,3.4,�쓌,7.3,��쓌,24.6,87,0,0,0,4.5
2020-07-27T05:40:00+09:00,3.5,�쓌,7.3,��쓌,24.8,86.4,0,0,0,4.5
2020-07-27T05:41:00+09:00,3.5,��쓌,7.3,��쓌,24.8,85.7,0,0,0,4.5
2020-07-27T05:42:00+09:00,3.5,��쓌,7.3,��쓌,24.8,85.3,0,0,0,4.5
2020-07-27T05:43:00+09:00,3.4,��쓌,7.3,��쓌,24.8,85.2,0,0,0,4.5
2020-07-27T05:44:00+09:00,3.3,��쓌,7.3,��쓌,24.8,85.1,0,0,0,4.5
2020-07-27T05:45:00+09:00,3.2,��쓌,7.3,��쓌,24.7,85.1,0,0,0,4.5
2020-07-27T05:46:00+09:00,3.3,��쓌,7.3,��쓌,24.7,85.2,0,0,0,4.5
2020-07-27T05:47:00+09:00,3.6,��쓌,7.3,��쓌,24.8,85,0,0,0,4.5
2020-07-27T05:48:00+09:00,3.6,��쓌,7.3,��쓌,24.8,84.8,0,0,0,4.5
2020-07-27T05:49:00+09:00,3.5,��쓌,7.3,��,24.8,84.7,0,0,0,4.5
2020-07-27T05:50:00+09:00,3.4,��쓌,7.3,��,24.9,84.6,0,0,0,4.5
2020-07-27T05:51:00+09:00,3.3,��쓌,7.3,��,24.8,84.5,0,0,0,4.5
2020-07-27T05:52:00+09:00,3.4,��쓌,7.3,��,24.9,84.6,0,0,0,4.5
2020-07-27T05:53:00+09:00,3.7,��쓌,7.3,��,24.9,84.6,0,0,0,4.5
2020-07-27T05:54:00+09:00,3.8,�쓌,7.3,��,24.9,84.6,0,0,0,4.5
2020-07-27T05:55:00+09:00,4,�쓌,7.3,��,25,84.5,0,0,0,4.5
2020-07-27T05:56:00+09:00,4.1,�쓌,7.3,��,24.9,84.4,0,0,0,4.5
2020-07-27T05:57:00+09:00,4.1,�쓌,7.1,�쓌,24.9,84.5,0,0,0,4.5
2020-07-27T05:58:00+09:00,4.1,�쓌,7.1,�쓌,24.9,84.6,0,0,0,4.5
2020-07-27T05:59:00+09:00,4.2,�쓌,7.1,�쓌,24.9,84.7,0,0,0,4.5
2020-07-27T06:00:00+09:00,4.2,�쓌,7.1,�쓌,25,84.7,0,0,0,4.5
2020-07-27T06:01:00+09:00,4.5,�쓌,7.9,�쓌,24.9,84.6,0,0,0,4.5
2020-07-27T06:02:00+09:00,4.5,�쓌,7.9,�쓌,25,84.6,0,0,0,4.5
2020-07-27T06:03:00+09:00,4.5,�쓌,7.9,�쓌,25,84.5,0,0,0,4.5
2020-07-27T06:04:00+09:00,4.4,�쓌,7.9,�쓌,25.1,84.1,0,0,0,4.5
2020-07-27T06:05:00+09:00,4.2,�쓌,7.9,�쓌,25,84.2,0,0,0,4.5
2020-07-27T06:06:00+09:00,4.2,�쓌,7.9,�쓌,24.9,84.3,0,0,0,4.5
2020-07-27T06:07:00+09:00,4.4,�쓌,7.9,�쓌,25,84.4,0,0,0,4.5
2020-07-27T06:08:00+09:00,4.3,�쓌,7.9,�쓌,24.8,84.5,0,0,0,4.5
2020-07-27T06:09:00+09:00,4,�쓌,7.9,�쓌,24.8,84.9,0,0,0,4.5
2020-07-27T06:10:00+09:00,3.8,�쓌,7.9,�쓌,24.8,85.3,0,0,0,4.5
2020-07-27T06:11:00+09:00,3.7,�쓌,7.9,��쓌,24.9,85.6,0,0,0,4.5
2020-07-27T06:12:00+09:00,3.5,�쓌,7.9,��쓌,24.9,85.6,0,0,0,4.5
2020-07-27T06:13:00+09:00,3.3,�쓌,7.9,��쓌,25,85.3,0,0,0,4.5
2020-07-27T06:14:00+09:00,3.2,�쓌,7.9,��쓌,24.9,85.3,0,0,0,4.5
2020-07-27T06:15:00+09:00,3.1,��쓌,7.9,��쓌,25,85.3,0,0,0,4.5
2020-07-27T06:16:00+09:00,3.1,��쓌,6.6,��쓌,25.1,85,0,0,0,4.5
2020-07-27T06:17:00+09:00,3.1,��쓌,6.6,��쓌,25.2,84.6,0,0,0,4.5
2020-07-27T06:18:00+09:00,3.2,��쓌,6.6,��쓌,25.3,84.1,0,0,0,4.5
2020-07-27T06:19:00+09:00,3.3,��쓌,6.6,��쓌,25.2,84,0,0,0,4.5
2020-07-27T06:20:00+09:00,3.4,��쓌,6.6,��쓌,25.2,84,0,0,0,4.5
2020-07-27T06:21:00+09:00,3.4,��쓌,6.6,��쓌,25.2,83.9,0,0,0,4.5
2020-07-27T06:22:00+09:00,3.4,��쓌,6.6,��쓌,25.2,83.9,0,0,0,4.5
2020-07-27T06:23:00+09:00,3.4,��쓌,6.6,��쓌,25.2,83.9,0,0,0,4.5
2020-07-27T06:24:00+09:00,3.3,�쓌,6.6,��쓌,25.2,83.9,0,0,0,4.5
2020-07-27T06:25:00+09:00,3.4,�쓌,6.6,��쓌,25.2,84.1,0,0,0,4.5
2020-07-27T06:26:00+09:00,3.3,�쓌,6.1,�쓌,25.1,84.1,0,0,0,4.5
2020-07-27T06:27:00+09:00,3.2,�쓌,5.8,��쓌,25.1,84.4,0,0,0,4.5
2020-07-27T06:28:00+09:00,3.3,�쓌,6.9,��쓌,25.1,84.3,0,0,0,4.5
2020-07-27T06:29:00+09:00,3.4,�쓌,6.9,��쓌,25.2,84.1,0,0,0,4.5
2020-07-27T06:30:00+09:00,3.4,�쓌,7.5,�쓌,25.1,84.1,0,0,0,4.5